• MPC Preparation (Info)

  • MPEC 2023-M152 : 2023 MJ5

    The following Minor Planet Electronic Circular may be linked-to from your own Web pages, but must not otherwise be redistributed electronically.

    A form allowing access to any MPEC is at the bottom of this page.


    Read MPEC 2023-M151 Read MPEC 2023-M153


    M.P.E.C. 2023-M152                                Issued 2023 June 28, 03:01 UT
    
         The Minor Planet Electronic Circulars contain information on unusual
             minor planets, routine data on comets and natural satellites,
             and occasional editorial announcements.  They are published
        on behalf of Division F of the International Astronomical Union by the
              Minor Planet Center, Smithsonian Astrophysical Observatory,
                              Cambridge, MA 02138, U.S.A.
    			  
                 Prepared using the Tamkin Foundation Computer Network
    
                                  MPC@CFA.HARVARD.EDU
                URL https://www.minorplanetcenter.net/    ISSN 1523-6714
    
                                    2023 MJ5                                 
    
    
    Observations:
         K23M05J* C2023 06 22.99544122 11 00.245-55 07 42.96         18.85oVEM152M22
         K23M05J  C2023 06 23.01199222 10 40.471-55 05 17.88         18.99oVEM152M22
         K23M05J  C2023 06 23.01820522 10 33.118-55 04 21.47         18.58oVEM152M22
         K23M05J  C2023 06 23.02110522 10 29.688-55 03 56.56         18.89oVEM152M22
         K23M05J KC2023 06 26.30962 21 24 58.28 -46 41 23.5          19.1 GVEM152W94
         K23M05J KC2023 06 26.31581 21 24 53.72 -46 40 29.7          18.9 GVEM152W94
         K23M05J KC2023 06 26.32198 21 24 49.22 -46 39 36.1          19.0 GVEM152W94
         K23M05J KB2023 06 27.08511921 17 31.755-44 49 55.08         18.1 GXEM152X93
         K23M05J KB2023 06 27.08842021 17 29.729-44 49 29.23               XEM152X93
         K23M05J KB2023 06 27.09195421 17 27.635-44 49 02.46         19.1 GXEM152X93
         K23M05J KB2023 06 27.09279921 17 26.890-44 49 07.39         19.0 GXEM152Y05
         K23M05J KB2023 06 27.10052521 17 22.105-44 48 07.90         18.5 GXEM152Y05
         K23M05J KB2023 06 27.10825221 17 17.235-44 47 07.73         19.5 GXEM152Y05
         K23M05J KB2023 06 28.04705321 09 08.735-42 38 54.32         19.0 GXEM152Y05
         K23M05J KB2023 06 28.05487421 09 04.664-42 37 57.75         19.1 GXEM152Y05
         K23M05J KB2023 06 28.06260921 09 00.529-42 37 00.29         19.4 GXEM152Y05
    
    Observer details:
    M22 ATLAS South Africa, Sutherland.  Observers L. Denneau, R. Siverd, J.
        Tonry, H. Weiland.  Measurers L. Denneau, N. Erasmus, A. Fitzsimmons, A.
        Lawrence, J. Robinson, R. Siverd, J. Tonry, H. Weiland.  0.5-m Reflector +
        CCD.
    W94 MAP, San Pedro de Atacama.  Observers A. Maury, G. Attard.  Measurers A.
        Maury, G. Attard, D. Parrott, F. Signoret.  0.36-m f/1.9 Schmidt
        astrograph + CCD.
    X93 Munhoz Observatory.  Observer A. Brossel.  0.30-m f/4.0 reflector + CMO.
    Y05 SONEAR Wykrota-CEAMIG, Serra da Piedade.  Observer C. Jacques.  0.45-m
        f/2.9 reflector + CMO.
    
    Orbital elements:
    2023 MJ5                                                 Earth MOID = 0.0340 AU
    Epoch 2023 Feb. 25.0 TT = JDT 2460000.5                 Alexandersen            
    M 310.35024              (2000.0)            P               Q                  
    n   0.70646008     Peri.  287.09015     -0.76373887     +0.64201030             
    a   1.2485644      Node   292.90578     -0.56101689     -0.71169143             
    e   0.2258516      Incl.    4.18817     -0.31931643     -0.28516326             
    P   1.40           H   24.02          G   0.15           U   9                  
    Residuals in seconds of arc
    230622 M22  0.3+  0.1-    230626 W94  0.1+  0.3+    230627 Y05  0.1-  0.1-
    230623 M22  0.5-  0.7-    230627 X93  0.2+  0.1-    230628 Y05  0.4-  0.2-
    230623 M22  0.1-  0.7+    230627 X93  0.1+  0.2+    230628 Y05  0.2+  0.6-
    230623 M22  0.2+  0.2-    230627 X93  0.8+  0.3-    230628 Y05  0.1-  0.4+
    230626 W94  0.1-  0.2+    230627 Y05  0.2+  0.2+
    230626 W94  0.2-  0.3+    230627 Y05  0.4+  0.2-
    
    Ephemeris:
    2023 MJ5                 a,e,i = 1.25, 0.23, 4                   q = 0.9666
    Date    TT    R. A. (2000) Decl.     Delta      r    Elong.  Phase     V
    2023 05 29    06 32 46.4 -31 49 08   0.06442 0.9847    61.9   114.8    22.5
    ...
    2023 06 13    03 51 35.3 -62 31 22   0.03929 1.0146    87.6    90.2    20.2
    ...
    2023 06 21    22 54 21.5 -60 09 59   0.03942 1.0352   117.8    60.3    19.2
    ...
    2023 06 27    21 18 06.1 -45 01 47   0.04743 1.0523   138.1    40.1    19.1
    2023 06 28    21 09 18.1 -42 45 17   0.04928 1.0553   141.0    37.3    19.1
    2023 06 29    21 01 37.2 -40 36 25   0.05124 1.0583   143.7    34.6    19.1
    ...
    2023 07 05    20 30 20.1 -30 18 54   0.06509 1.0770   157.3    21.4    19.3
    ...
    2023 07 13    20 07 47.0 -21 53 14   0.08783 1.1033   170.5     8.7    19.5
    ...
    2023 07 28    19 48 11.5 -14 31 16   0.1419  1.1554   169.7     9.1    20.7
    
    M. P. C. Staff               (C) Copyright 2023 MPC           M.P.E.C. 2023-M152
    


    Read MPEC 2023-M151 Read MPEC 2023-M153


    MPEC number:

    Enter an MPEC number in one of the following forms:

    • 1997-B01 (the full form)
    • J97B01 (the packed version of the full form)
    • B01 (the abbreviated form)